Time,TemperatureF,DewpointF,PressureIn,WindDirection,WindDirectionDegrees,WindSpeedMPH,WindSpeedGustMPH,Humidity,HourlyPrecipIn,Conditions,Clouds,dailyrainin,SoftwareType,DateUTC
2013-05-08 00:00:00,59.9,53.7,29.97,East,101,0.0,0.0,80,0.00,,---,0.00,VWS V14.00,2013-05-08 04:00:00,
2013-05-08 00:30:00,58.4,52.9,29.98,East,101,0.0,0.0,82,0.00,,---,0.00,VWS V14.00,2013-05-08 04:30:00,
2013-05-08 01:00:00,57.8,53.0,29.98,ESE,110,0.0,0.0,84,0.00,,---,0.00,VWS V14.00,2013-05-08 05:00:00,
2013-05-08 01:30:00,56.8,52.7,29.98,ESE,110,0.0,0.0,86,0.00,,---,0.00,VWS V14.00,2013-05-08 05:30:00,
2013-05-08 02:00:00,56.3,52.5,29.97,ESE,110,0.0,0.0,87,0.00,,---,0.00,VWS V14.00,2013-05-08 06:00:00,
2013-05-08 02:30:00,55.4,51.9,29.97,ESE,110,0.0,0.0,88,0.00,,---,0.00,VWS V14.00,2013-05-08 06:30:00,
2013-05-08 03:00:00,54.6,51.4,29.96,ESE,110,0.0,0.0,89,0.00,,---,0.00,VWS V14.00,2013-05-08 07:00:00,
2013-05-08 03:30:00,54.5,51.9,29.96,ESE,110,0.0,0.0,91,0.00,,---,0.00,VWS V14.00,2013-05-08 07:30:00,
2013-05-08 04:00:00,53.7,51.4,29.96,ESE,110,0.0,0.0,92,0.00,,---,0.00,VWS V14.00,2013-05-08 08:00:00,
2013-05-08 04:30:00,53.4,51.4,29.97,ESE,102,0.0,0.0,93,0.00,,---,0.00,VWS V14.00,2013-05-08 08:30:00,
2013-05-08 05:00:00,52.8,50.8,29.96,ESE,106,0.0,0.0,93,0.00,,---,0.00,VWS V14.00,2013-05-08 09:00:00,
2013-05-08 05:30:00,53.1,51.4,29.96,ESE,105,0.0,0.0,94,0.00,,---,0.00,VWS V14.00,2013-05-08 09:30:00,
2013-05-08 06:00:00,53.2,51.5,29.96,ESE,106,0.0,0.0,94,0.00,,---,0.00,VWS V14.00,2013-05-08 10:00:00,
2013-05-08 06:30:00,53.4,51.4,29.97,ESE,106,0.0,0.0,93,0.00,,---,0.00,VWS V14.00,2013-05-08 10:30:00,
2013-05-08 07:00:00,53.0,51.3,29.98,ESE,105,0.0,0.0,94,0.00,,---,0.00,VWS V14.00,2013-05-08 11:00:00,
2013-05-08 07:30:00,53.3,51.6,29.99,ESE,109,0.0,0.0,94,0.00,,---,0.00,VWS V14.00,2013-05-08 11:30:00,
2013-05-08 08:00:00,55.1,53.4,29.99,ENE,76,0.0,0.0,94,0.00,,---,0.00,VWS V14.00,2013-05-08 12:00:00,
2013-05-08 08:30:00,58.5,54.7,30.00,ENE,74,0.0,1.0,87,0.00,,---,0.00,VWS V14.00,2013-05-08 12:30:00,
2013-05-08 09:00:00,62.0,55.4,30.00,NNE,27,1.0,3.0,79,0.00,,---,0.00,VWS V14.00,2013-05-08 13:00:00,
2013-05-08 09:30:00,64.6,55.8,30.00,ENE,68,1.0,3.0,73,0.00,,---,0.00,VWS V14.00,2013-05-08 13:30:00,
2013-05-08 10:00:00,65.4,56.9,30.01,WNW,291,2.0,4.0,74,0.00,,---,0.00,VWS V14.00,2013-05-08 14:00:00,
2013-05-08 10:30:00,65.8,56.9,30.00,West,276,1.0,2.0,73,0.00,,---,0.00,VWS V14.00,2013-05-08 14:30:00,
2013-05-08 11:00:00,67.4,56.1,30.00,West,276,0.0,1.0,67,0.00,,---,0.00,VWS V14.00,2013-05-08 15:00:00,
2013-05-08 11:30:00,69.0,57.6,30.00,WSW,258,1.0,1.0,67,0.00,,---,0.00,VWS V14.00,2013-05-08 15:30:00,
2013-05-08 12:00:00,70.8,55.8,29.99,WNW,284,2.0,4.0,59,0.00,,---,0.00,VWS V14.00,2013-05-08 16:00:00,
2013-05-08 12:30:00,71.9,54.9,29.99,WNW,291,3.0,3.0,55,0.00,,---,0.00,VWS V14.00,2013-05-08 16:30:00,
2013-05-08 13:00:00,73.8,53.5,29.98,West,273,2.0,4.0,49,0.00,,---,0.00,VWS V14.00,2013-05-08 17:00:00,
2013-05-08 13:30:00,76.0,54.9,29.97,WSW,256,2.0,4.0,48,0.00,,---,0.00,VWS V14.00,2013-05-08 17:30:00,
2013-05-08 14:00:00,77.1,57.6,29.97,West,274,1.0,4.0,51,0.00,,---,0.00,VWS V14.00,2013-05-08 18:00:00,
2013-05-08 14:30:00,74.6,54.8,29.96,NW,314,2.0,7.0,50,0.00,,---,0.00,VWS V14.00,2013-05-08 18:30:00,
2013-05-08 15:00:00,72.4,57.3,29.96,NW,309,11.0,12.0,59,0.00,,---,0.00,VWS V14.00,2013-05-08 19:00:00,
2013-05-08 15:30:00,68.3,54.8,29.96,West,271,3.0,15.0,62,0.00,,---,0.00,VWS V14.00,2013-05-08 19:30:00,
2013-05-08 16:00:00,70.5,56.0,29.95,WSW,255,0.0,4.0,60,0.00,,---,0.00,VWS V14.00,2013-05-08 20:00:00,
2013-05-08 16:30:00,75.2,53.6,29.94,West,276,1.0,2.0,47,0.00,,---,0.00,VWS V14.00,2013-05-08 20:30:00,
2013-05-08 17:00:00,76.9,55.7,29.93,NNW,331,1.0,3.0,48,0.00,,---,0.00,VWS V14.00,2013-05-08 21:00:00,
2013-05-08 17:30:00,75.4,56.0,29.93,ENE,62,5.0,5.0,51,0.00,,---,0.00,VWS V14.00,2013-05-08 21:30:00,
2013-05-08 18:00:00,73.0,55.9,29.93,NE,39,4.0,6.0,55,0.00,,---,0.00,VWS V14.00,2013-05-08 22:00:00,
2013-05-08 18:30:00,72.2,53.6,29.93,ESE,113,0.0,6.0,52,0.00,,---,0.00,VWS V14.00,2013-05-08 22:30:00,
2013-05-08 19:00:00,75.1,57.8,29.93,SE,137,2.0,3.0,55,0.00,,---,0.00,VWS V14.00,2013-05-08 23:00:00,
2013-05-08 19:30:00,74.0,56.3,29.93,SE,143,2.0,4.0,54,0.00,,---,0.00,VWS V14.00,2013-05-08 23:30:00,
2013-05-08 20:00:00,73.2,57.1,29.93,ESE,119,0.0,2.0,57,0.00,,---,0.00,VWS V14.00,2013-05-09 00:00:00,
2013-05-08 20:30:00,70.7,57.9,29.94,WSW,249,0.0,1.0,64,0.00,,---,0.00,VWS V14.00,2013-05-09 00:30:00,
2013-05-08 21:00:00,66.7,59.6,29.95,West,263,2.0,3.0,78,0.00,,---,0.00,VWS V14.00,2013-05-09 01:00:00,
2013-05-08 21:30:00,64.4,57.4,29.95,SSW,207,0.0,2.0,78,0.00,,---,0.00,VWS V14.00,2013-05-09 01:30:00,
2013-05-08 22:00:00,62.4,56.8,29.96,South,188,0.0,0.0,82,0.00,,---,0.00,VWS V14.00,2013-05-09 02:00:00,
2013-05-08 22:30:00,61.3,56.1,29.96,SE,137,0.0,0.0,83,0.00,,---,0.00,VWS V14.00,2013-05-09 02:30:00,
2013-05-08 23:00:00,59.8,55.9,29.96,SE,137,0.0,0.0,87,0.00,,---,0.00,VWS V14.00,2013-05-09 03:00:00,
2013-05-08 23:30:00,58.4,55.2,29.96,SE,136,0.0,0.0,89,0.00,,---,0.00,VWS V14.00,2013-05-09 03:30:00,